Location: ??????????
(48.4699°N, 37.9573°E)
Time: 13:14:07
(UTC+00:00)

CZ-4B R/B - Pass Details

Date: 20 January 2021
Orbit: 809 x 882 km, 99.1° (Epoch: 26 February)

Event Time Altitude Azimuth Distance (km) Brightness Sun altitude
Rises 14:54:08 0° 165° (SSE) 3,404 6.4 -7.7°
Reaches altitude 10° 14:56:28 10° 167° (SSE) 2,482 5.8 -8.0°
Maximum altitude 15:02:00 82° 255° (WSW) 882 3.4 -8.9°
Drops below altitude 10° 15:07:41 10° 343° (NNW) 2,540 5.7 -9.8°
Sets 15:10:06 0° 345° (NNW) 3,488 6.4 -10.2°
